Flag Weather past 2 weeks in Port Elizabeth, South Africa

Now
75 °F

Sunny.


Feels Like: 78 °F
Forecast: 62 / 69 °F
Wind: 13 mph from East

Location: Port Elizabeth Airport

Current Time: Nov 22, 2014 at 12:50:26 PM

Latest Report: Nov 22, 2014 at 12:00 PM


Visibility: 10 mi

Pressure: 30.01 "Hg

Humidity: 57%

Dew point: 59 °F

Location of Port ElizabethLocation

Historic Weather in Port Elizabeth — Graph

°F

Port Elizabeth temperature yesterday

Maximum temperature yesterday: 72 °F (at 11:01 AM)
Minimum temperature yesterday: 57 °F (at 1:00 AM)
Average temperature yesterday: 64 °F

Past Weeks' High & Low Weather Summary

 TemperatureHumidityPressure
High77 °F (Nov 12, 2:00 PM)94% (Nov 10, 12:00 AM)30.36 "Hg (Nov 10, 12:00 AM)
Low50 °F (Nov 18, 5:00 AM)46% (Nov 18, 1:00 PM)29.59 "Hg (Nov 12, 2:00 PM)
Average63 °F73%30.02 "Hg
* Reported Nov 7 11:00 AM — Nov 22 11:00 AM, Port Elizabeth, Weather by CustomWeather, © 2014

Note: Actual official high and low records may vary slightly from our data, if they occured in-between our weather recording intervals... More about our weather records

Advertising

Port Elizabeth weather history for previous 24 hours

 ConditionsComfort  
Time TempWeatherWind HumidityBarometerVisibility
11:00 AM
Nov 22
73 °FPassing clouds.10 mph57%30.04 "HgN/A
10:00 AM72 °FPassing clouds.8 mph57%30.04 "HgN/A
9:00 AM70 °FPassing clouds.7 mph69%30.07 "HgN/A
8:00 AM68 °FPassing clouds.1 mph69%30.07 "HgN/A
7:00 AM64 °FSunny.2 mph83%30.07 "Hg10 mi
6:47 AM64 °FSunny.2 mph83%30.07 "Hg10 mi
6:00 AM59 °FPassing clouds.5 mph77%30.07 "HgN/A
5:00 AM57 °FSunny.7 mph82%30.04 "Hg10 mi
2:00 AM59 °FClear.5 mph88%30.07 "Hg10 mi
1:00 AM59 °FClear.1 mph82%30.07 "Hg10 mi
12:00 AM61 °FClear.5 mph83%30.09 "Hg10 mi
11:00 PM
Nov 21
61 °FPassing clouds.5 mph83%30.09 "HgN/A
10:01 PM63 °FClear.6 mph83%30.09 "Hg10 mi
9:00 PM59 °FPassing clouds.6 mph88%30.07 "HgN/A
8:00 PM61 °FPassing clouds.6 mph83%30.07 "HgN/A
7:00 PM64 °FPassing clouds.6 mph78%30.04 "HgN/A
6:00 PM68 °FPassing clouds.10 mph69%30.04 "HgN/A
5:00 PM68 °FSunny.14 mph64%30.01 "Hg10 mi
4:00 PM70 °FPassing clouds.14 mph60%30.01 "HgN/A
3:00 PM70 °FSunny.13 mph60%30.01 "Hg10 mi
2:00 PM72 °FPassing clouds.13 mph57%30.01 "HgN/A
1:00 PM72 °FPassing clouds.14 mph53%30.04 "HgN/A
12:00 PM70 °FPassing clouds.16 mph57%30.04 "HgN/A
Weather by CustomWeather, © 2014

See weather overviewHow to use our weather pages